Regional Weather Roundup
Issued by NWS

Home | Current Version | Previous Version | Graphics & Text | Print | Product List | Glossary Off
Versions: 1 2 3 4 5 6 7 8 9 10 11 12 13 14 15 16 17 18 19 20 21 22 23 24 25 26 27 28 29 30 31 32 33 34 35 36 37 38 39 40 41 42 43 44 45 46 47 48 49 50

000
ASUS43 KTOP 262259
RWRKS

WEATHER ROUNDUP FOR KANSAS
NATIONAL WEATHER SERVICE GOODLAND KS
500 PM CST MON JAN 26 2015

NOTE:  "FAIR" INDICATES FEW OR NO CLOUDS BELOW 12,000 FEET WITH NO
SIGNIFICANT WEATHER AND/OR OBSTRUCTIONS TO VISIBILITY.

KSZ001>006-013>018-027>032-041>047-270000-
NORTHWEST KANSAS

CITY           SKY/WX    TMP DP  RH WIND       PRES   REMARKS
GOODLAND       CLEAR     65  31  28 N9        30.13F
HAYS           CLEAR     70  30  23 NW16      30.05R
HILL CITY      CLEAR     71  28  20 NW17G26   30.05R
RUSSELL        CLEAR     69  31  24 N16       30.02R
$$

KSZ061>065-074>080-084>089-270000-
SOUTHWEST KANSAS

CITY           SKY/WX    TMP DP  RH WIND       PRES   REMARKS
DODGE CITY     CLEAR     70  27  20 N10       30.09R
ELKHART          N/A    N/A N/A N/A MISG        N/A
GARDEN CITY    CLEAR     69  27  20 N20       30.10S
GREAT BEND     CLEAR     70  30  23 N13       30.05R
LIBERAL        SUNNY     70  30  23 NW10      30.15S
$$

KSZ066>073-081>083-090>101-270000-
SOUTHEAST KANSAS

CITY           SKY/WX    TMP DP  RH WIND       PRES   REMARKS
CHANUTE        CLEAR     64  36  35 NW15      29.97R
COFFEYVILLE    CLEAR     67  37  33 NW13      29.97R
HUTCHINSON     CLEAR     72  33  24 NW9       30.00R
MEDICINE LODGE   N/A     72  32  23 NW9G23    30.03R
NEWTON         CLEAR     66  32  28 NW9       30.02R
PARSONS        CLEAR     67  37  33 NW13      29.98R
WICHITA INTL   CLEAR     71  33  24 N12       29.99R
WICHITA JABRA  CLEAR     69  34  27 NW9       29.99R
WINFIELD       CLEAR     70  31  23 NW13      30.00R
$$

KSZ007>012-019>026-033>040-048>060-102>105-270000-
NORTHEAST KANSAS

CITY           SKY/WX    TMP DP  RH WIND       PRES   REMARKS
CONCORDIA      CLEAR     65  33  30 N10       30.00R
EMPORIA        CLEAR     64  34  32 NW13G21   29.96S
LAWRENCE       CLEAR     61  31  32 NW12      29.94R
MANHATTAN      CLEAR     67  27  22 NW6       29.98R
OLATHE IND     CLEAR     59  34  39 NW9       29.94R
OLATHE EXE     CLEAR     61  33  35 N9G16     29.93R
SALINA         CLEAR     68  33  27 N10       30.00R
TOPEKA BILLARD CLEAR     64  30  27 NW13      29.95R
TOPEKA FORBES  CLEAR     64  31  28 NW16      29.95R
$$



USA.gov is the U.S. government's official web portal to all federal, state and local government web resources and services.